SKYNET 4F

Last updated on Tue Oct 01 2019 04:11:56 GMT+0000 (Coordinated Universal Time)

1 26695U 01005B 19272.24587089 -.00000266 00000-0 00000+0 0 9992 2 26695 9.7424 31.2162 0002824 162.1717 228.8179 1.00267793 68288
UTC large
Height (km)
Speed (km/s)
/
Latitude / Longitude
Inclination (degrees)
Orbital Period (minutes)
Azimuth
Elevation
Range (km)
Doppler Factor

Next 0 passes for location: London (51.5072 / 0.1276)

Sorry there are no passes over London.